Location: Erlenbrunn
(49.1717°N, 7.6142°E)
Time: 06:20:26
(UTC+00:00)

Lacrosse 5 rocket - Pass Details

Date: 25 November 2020
Orbit: 462 x 633 km, 57.0° (Epoch: 27 January)

Event Time Altitude Azimuth Distance (km) Brightness Sun altitude
Rises 17:18:10 0° 198° (SSW) 2,523 5.2 -15.9°
Reaches altitude 10° 17:20:38 10° 183° (S) 1,630 3.9 -16.3°
Enters shadow 17:23:24 22° 133° (SE) 1,064 2.5 -16.7°
